KX4BI Weather Reports


time (UTC)temp
C
wind
direction
speed
KPH
gust
KPH
rain 1hr
cm
rain 24hr
cm
rain mn
cm
humidity
%
barometer
mb
20260904215504 28 14 0.0 1.6 0.00 0.00 0.00 67 1014.7
20260904215004 28 22 0.0 1.6 0.00 0.00 0.00 66 1014.7
20260904214523 28 22 0.0 3.2 0.00 0.00 0.00 65 1014.7
20260904214003 28 22 0.0 3.2 0.00 0.00 0.00 65 1014.8
20260904213504 28 290 0.0 4.8 0.00 0.00 0.00 66 1014.9
20260904213017 28 324 0.0 6.4 0.00 0.00 0.00 65 1014.9
20260904212509 29 285 3.2 6.4 0.00 0.00 0.00 63 1015.0
20260904212012 29 4 1.6 4.8 0.00 0.00 0.00 63 1014.8
20260904211528 29 4 1.6 6.4 0.00 0.00 0.00 62 1014.8
20260904211010 30 353 1.6 9.7 0.00 0.00 0.00 61 1014.6
20260904210514 30 18 1.6 9.7 0.00 0.00 0.00 60 1014.7
20260904210026 30 339 3.2 4.8 0.00 0.00 0.00 60 1014.7
20260904205506 30 258 1.6 6.4 0.00 0.00 0.00 60 1014.9
20260904205003 31 278 3.2 6.4 0.00 0.00 0.00 58 1015.2
20260904204505 31 283 3.2 6.4 0.00 0.00 0.00 56 1015.2
20260904204004 31 3 3.2 9.7 0.00 0.00 0.00 55 1015.0
20260904203504 32 16 4.8 9.7 0.00 0.00 0.00 55 1015.1
20260904203015 32 15 4.8 11.3 0.00 0.00 0.00 55 1015.1
20260904202510 32 338 3.2 11.3 0.00 0.00 0.00 54 1015.1
20260904202006 33 301 6.4 11.3 0.00 0.00 0.00 54 1015.3
20260904201526 33 57 4.8 14.5 0.00 0.00 0.00 55 1015.5
20260904201007 33 17 6.4 16.1 0.00 0.00 0.00 52 1015.5
20260904200509 33 3 3.2 17.7 0.00 0.00 0.00 52 1015.5
20260904200024 35 302 6.4 17.7 0.00 0.00 0.00 50 1015.6
20260904195510 35 83 4.8 12.9 0.00 0.00 0.00 51 1015.6
20260904195012 34 81 8.0 12.9 0.00 0.00 0.00 52 1015.5
20260904194533 35 103 4.8 11.3 0.00 0.00 0.00 50 1015.5
20260904194003 35 30 3.2 9.7 0.00 0.00 0.00 53 1015.5
20260904193503 35 111 3.2 11.3 0.00 0.00 0.00 54 1015.6
20260904193006 34 76 4.8 11.3 0.00 0.00 0.00 54 1015.8
20260904192503 33 326 1.6 3.2 0.00 0.00 0.00 57 1015.8
20260904192005 33 342 0.0 1.6 0.00 0.00 0.00 56 1015.8
20260904191533 33 311 0.0 1.6 0.00 0.00 0.00 53 1015.9
20260904191004 33 310 0.0 1.6 0.00 0.00 0.00 53 1015.8
20260904190507 33 239 0.0 1.6 0.00 0.00 0.00 55 1015.8
20260904190014 34 239 0.0 3.2 0.00 0.00 0.00 53 1015.9
20260904185508 34 239 0.0 3.2 0.00 0.00 0.00 48 1016.1
20260904185010 34 228 1.6 4.8 0.00 0.00 0.00 48 1016.1
20260904184528 34 193 1.6 4.8 0.00 0.00 0.00 53 1016.1
20260904184012 34 233 1.6 4.8 0.00 0.00 0.00 52 1016.2
20260904183514 34 240 0.0 4.8 0.00 0.00 0.00 48 1016.3
20260904183027 34 120 0.0 3.2 0.00 0.00 0.00 53 1016.3
20260904182503 34 12 0.0 6.4 0.00 0.00 0.00 50 1016.4
20260904182007 34 103 3.2 6.4 0.00 0.00 0.00 48 1016.5
20260904181506 34 41 1.6 11.3 0.00 0.00 0.00 48 1016.5
20260904181008 35 67 3.2 11.3 0.00 0.00 0.00 47 1016.5
20260904180506 35 86 6.4 11.3 0.00 0.00 0.00 47 1016.4
20260904180018 35 262 6.4 9.7 0.00 0.00 0.00 48 1016.5
20260904175507 35 304 3.2 8.0 0.00 0.00 0.00 49 1016.5
20260904175008 35 270 4.8 9.7 0.00 0.00 0.00 51 1016.6
20260904174532 35 298 6.4 9.7 0.00 0.00 0.00 49 1016.7
20260904174010 35 64 4.8 9.7 0.00 0.00 0.00 50 1016.8
20260904173511 34 76 3.2 11.3 0.00 0.00 0.00 51 1016.9
20260904173023 34 85 8.0 11.3 0.00 0.00 0.00 49 1017.0
20260904172513 35 120 1.6 8.0 0.00 0.00 0.00 49 1017.0
20260904172016 35 108 3.2 11.3 0.00 0.00 0.00 47 1017.2
20260904171525 35 113 4.8 11.3 0.00 0.00 0.00 49 1017.2
20260904171014 34 143 3.2 8.0 0.00 0.00 0.00 54 1017.3
20260904170504 34 256 4.8 8.0 0.00 0.00 0.00 52 1017.3
20260904170007 34 222 3.2 8.0 0.00 0.00 0.00 48 1017.4
20260904165506 34 245 1.6 8.0 0.00 0.00 0.00 51 1017.4
20260904165006 34 242 1.6 8.0 0.00 0.00 0.00 52 1017.4
20260904164515 33 8 4.8 8.0 0.00 0.00 0.00 51 1017.6
20260904164011 34 311 1.6 6.4 0.00 0.00 0.00 55 1017.6
20260904163509 34 61 3.2 6.4 0.00 0.00 0.00 56 1017.7
20260904163018 34 90 3.2 6.4 0.00 0.00 0.00 56 1017.8
20260904162511 34 129 4.8 6.4 0.00 0.00 0.00 56 1017.8
20260904162013 33 134 3.2 6.4 0.00 0.00 0.00 57 1017.8
20260904161527 33 77 1.6 6.4 0.00 0.00 0.00 58 1017.8
20260904161018 33 106 1.6 6.4 0.00 0.00 0.00 56 1017.8
20260904160514 33 89 3.2 6.4 0.00 0.00 0.00 56 1017.8
20260904160029 33 109 3.2 8.0 0.00 0.00 0.00 59 1017.8
20260904155513 33 105 4.8 8.0 0.00 0.00 0.00 58 1017.8
20260904155004 33 76 0.0 8.0 0.00 0.00 0.00 59 1017.9
20260904154508 32 159 3.2 8.0 0.00 0.00 0.00 59 1017.9
20260904154010 32 120 4.8 8.0 0.00 0.00 0.00 60 1017.9
20260904153506 32 96 3.2 6.4 0.00 0.00 0.00 57 1017.8
20260904153028 32 228 1.6 8.0 0.00 0.00 0.00 60 1017.7
20260904152507 32 155 4.8 8.0 0.00 0.00 0.00 59 1017.8
20260904152006 32 79 4.8 8.0 0.00 0.00 0.00 63 1017.7
20260904151527 32 74 4.8 8.0 0.00 0.00 0.00 62 1017.8
20260904151016 32 86 3.2 4.8 0.00 0.00 0.00 58 1017.8
20260904150510 32 118 1.6 4.8 0.00 0.00 0.00 62 1017.8
20260904150035 32 234 0.0 4.8 0.00 0.00 0.00 63 1017.6
20260904145514 31 142 1.6 6.4 0.00 0.00 0.00 60 1017.6
20260904145016 31 214 3.2 6.4 0.00 0.00 0.00 61 1017.4
20260904144530 31 245 1.6 4.8 0.00 0.00 0.00 62 1017.4
20260904144018 31 86 1.6 4.8 0.00 0.00 0.00 63 1017.3
20260904143505 31 89 1.6 4.8 0.00 0.00 0.00 65 1017.3
20260904143020 31 148 1.6 4.8 0.00 0.00 0.00 64 1017.4
20260904142509 31 216 1.6 6.4 0.00 0.00 0.00 67 1017.4
20260904142007 30 179 1.6 6.4 0.00 0.00 0.00 66 1017.6
20260904141531 30 147 3.2 4.8 0.00 0.00 0.00 67 1017.7
20260904141008 30 124 1.6 3.2 0.00 0.00 0.00 67 1017.6
20260904140508 30 146 1.6 3.2 0.00 0.00 0.00 69 1017.6
20260904140032 30 162 0.0 3.2 0.00 0.00 0.00 70 1017.5
20260904135512 30 137 0.0 3.2 0.00 0.00 0.00 71 1017.6
20260904135014 29 213 0.0 3.2 0.00 0.00 0.00 73 1017.6
20260904134505 29 134 0.0 1.6 0.00 0.00 0.00 74 1017.7
20260904134004 28 104 0.0 3.2 0.00 0.00 0.00 75 1017.7
20260904133504 28 99 1.6 3.2 0.00 0.00 0.00 74 1017.6
20260904133017 28 107 1.6 3.2 0.00 0.00 0.00 76 1017.5
20260904132507 27 96 1.6 3.2 0.00 0.00 0.00 76 1017.6
20260904132006 27 114 1.6 3.2 0.00 0.00 0.00 76 1017.6
20260904131534 27 96 1.6 3.2 0.00 0.00 0.00 80 1017.6
20260904131010 27 105 1.6 3.2 0.00 0.00 0.00 80 1017.6
20260904130512 27 114 0.0 1.6 0.00 0.00 0.00 81 1017.6
20260904130020 27 114 0.0 1.6 0.00 0.00 0.00 81 1017.5
20260904125514 26 356 0.0 1.6 0.00 0.00 0.00 83 1017.5
20260904125011 26 355 0.0 0.0 0.00 0.00 0.00 84 1017.4
20260904124526 25 355 0.0 1.6 0.00 0.00 0.00 85 1017.4
20260904124014 25 355 0.0 3.2 0.00 0.00 0.00 87 1017.4
20260904123506 25 355 1.6 3.2 0.00 0.00 0.00 86 1017.3
20260904123006 24 6 1.6 3.2 0.00 0.00 0.00 88 1017.2
20260904122505 24 8 0.0 3.2 0.00 0.00 0.00 88 1017.2
20260904122003 24 8 3.2 3.2 0.00 0.00 0.00 89 1017.2
20260904121511 23 9 1.6 3.2 0.00 0.00 0.00 89 1017.2
20260904121006 23 9 3.2 3.2 0.00 0.00 0.00 90 1017.0
20260904120505 23 7 3.2 3.2 0.00 0.00 0.00 91 1017.0
20260904120022 23 7 1.6 1.6 0.00 0.00 0.00 92 1016.9
20260904115512 23 7 0.0 0.0 0.00 0.00 0.00 93 1016.8
20260904115010 22 7 0.0 0.0 0.00 0.00 0.00 93 1016.8
20260904114519 22 7 0.0 0.0 0.00 0.00 0.00 94 1016.8
20260904114013 22 7 0.0 0.0 0.00 0.00 0.00 94 1016.7
20260904113513 22 7 0.0 0.0 0.00 0.00 0.00 94 1016.7
20260904113038 22 7 0.0 0.0 0.00 0.00 0.00 94 1016.6
20260904112514 22 7 0.0 0.0 0.00 0.00 0.00 94 1016.6
20260904112004 22 7 0.0 0.0 0.00 0.00 0.00 94 1016.5
20260904111508 22 7 0.0 0.0 0.00 0.00 0.00 94 1016.5
20260904111006 22 7 0.0 0.0 0.00 0.00 0.00 93 1016.5
20260904110507 22 7 0.0 0.0 0.00 0.00 0.00 93 1016.5
20260904110014 22 7 0.0 0.0 0.00 0.00 0.00 93 1016.6
20260904105509 22 7 0.0 0.0 0.00 0.00 0.00 93 1016.5
20260904105009 22 7 0.0 0.0 0.00 0.00 0.00 93 1016.5
20260904104517 22 7 0.0 0.0 0.00 0.00 0.00 93 1016.5
20260904104010 22 7 0.0 0.0 0.00 0.00 0.00 93 1016.4
20260904103512 22 7 0.0 0.0 0.00 0.00 0.00 93 1016.4
20260904103023 22 7 0.0 0.0 0.00 0.00 0.00 93 1016.4
20260904102514 22 7 0.0 0.0 0.00 0.00 0.00 92 1016.4
20260904102013 22 7 0.0 0.0 0.00 0.00 0.00 92 1016.3
20260904101528 22 7 0.0 0.0 0.00 0.00 0.00 91 1016.3
20260904101020 22 7 0.0 0.0 0.00 0.00 0.00 91 1016.3
20260904100507 23 7 0.0 1.6 0.00 0.00 0.00 90 1016.2
20260904100008 23 7 0.0 1.6 0.00 0.00 0.00 90 1016.2
20260904095505 23 7 0.0 1.6 0.00 0.00 0.00 90 1016.2
20260904095007 23 7 0.0 3.2 0.00 0.00 0.00 90 1016.2
20260904094528 23 7 0.0 3.2 0.00 0.00 0.00 90 1016.1
20260904094008 23 7 1.6 4.8 0.00 0.00 0.00 90 1016.1
20260904093511 23 336 1.6 4.8 0.00 0.00 0.00 91 1016.1
20260904093025 23 1 3.2 4.8 0.00 0.00 0.00 91 1016.0
20260904092512 23 27 1.6 1.6 0.00 0.00 0.00 91 1016.1
20260904092012 23 27 0.0 3.2 0.00 0.00 0.00 90 1016.0
20260904091527 23 27 1.6 3.2 0.00 0.00 0.00 91 1016.0
20260904091013 23 32 1.6 1.6 0.00 0.00 0.00 91 1016.0
20260904090515 23 34 0.0 1.6 0.00 0.00 0.00 91 1016.0
20260904090032 23 34 0.0 0.0 0.00 0.00 0.00 91 1016.0
20260904085516 23 34 0.0 0.0 0.00 0.00 0.00 91 1016.0
20260904085003 23 34 0.0 0.0 0.00 0.00 0.00 90 1016.0
20260904084512 23 34 0.0 1.6 0.00 0.00 0.00 90 1015.9
20260904084010 23 34 0.0 1.6 0.00 0.00 0.00 90 1015.9
20260904083508 23 34 0.0 1.6 0.00 0.00 0.00 90 1015.8
20260904083028 23 34 0.0 0.0 0.00 0.00 0.00 90 1015.8
20260904082510 23 34 0.0 0.0 0.00 0.00 0.00 90 1015.8
20260904082011 23 34 0.0 1.6 0.00 0.00 0.00 90 1015.7
20260904081525 23 34 0.0 1.6 0.00 0.00 0.00 90 1015.6
20260904081013 23 34 0.0 0.0 0.00 0.00 0.00 90 1015.7
20260904080514 23 34 0.0 0.0 0.00 0.00 0.00 91 1015.7
20260904080028 23 34 0.0 0.0 0.00 0.00 0.00 91 1015.7
20260904075515 23 34 0.0 0.0 0.00 0.00 0.00 91 1015.6
20260904075017 23 34 0.0 0.0 0.00 0.00 0.00 90 1015.6
20260904074536 23 34 0.0 0.0 0.00 0.00 0.00 89 1015.6
20260904074013 23 34 0.0 0.0 0.00 0.00 0.00 89 1015.6
20260904073504 23 34 0.0 0.0 0.00 0.00 0.00 90 1015.6
20260904073014 23 34 0.0 0.0 0.00 0.00 0.00 90 1015.6
20260904072509 23 34 0.0 0.0 0.00 0.00 0.00 90 1015.6
20260904072013 23 34 0.0 0.0 0.00 0.00 0.00 89 1015.6
20260904071522 23 34 0.0 0.0 0.00 0.00 0.00 88 1015.6
20260904071011 24 34 0.0 0.0 0.00 0.00 0.00 88 1015.6
20260904070516 24 34 0.0 1.6 0.00 0.00 0.00 89 1015.6
20260904070025 23 34 0.0 1.6 0.00 0.00 0.00 89 1015.6
20260904065514 23 34 0.0 1.6 0.00 0.00 0.00 89 1015.7
20260904065014 23 34 0.0 1.6 0.00 0.00 0.00 89 1015.7
20260904064532 23 34 0.0 0.0 0.00 0.00 0.00 90 1015.7
20260904064021 23 34 0.0 0.0 0.00 0.00 0.00 90 1015.7
20260904063513 23 34 0.0 0.0 0.00 0.00 0.00 90 1015.8
20260904063029 23 34 0.0 0.0 0.00 0.00 0.00 89 1015.8
20260904062518 23 34 0.0 0.0 0.00 0.00 0.00 89 1015.9
20260904062007 24 34 0.0 0.0 0.00 0.00 0.00 88 1016.0
20260904061516 24 34 0.0 1.6 0.00 0.00 0.00 88 1016.1
20260904061009 24 34 0.0 1.6 0.00 0.00 0.00 87 1016.0
20260904060511 24 34 0.0 1.6 0.00 0.00 0.00 87 1016.0
20260904060035 24 34 0.0 1.6 0.00 0.00 0.00 87 1016.0
20260904055512 24 34 0.0 1.6 0.00 0.00 0.00 87 1016.0
20260904055014 24 34 1.6 1.6 0.00 0.00 0.00 87 1016.0
20260904054538 24 34 0.0 0.0 0.00 0.00 0.00 87 1016.1
20260904054014 24 34 0.0 0.0 0.00 0.00 0.00 87 1016.0
20260904053520 24 34 0.0 0.0 0.00 0.00 0.00 87 1015.9
20260904053041 24 34 0.0 0.0 0.00 0.00 0.00 87 1016.1
20260904052516 24 34 0.0 0.0 0.00 0.00 0.00 87 1016.0
20260904052019 24 34 0.0 1.6 0.00 0.00 0.00 86 1016.1
20260904051535 24 34 0.0 1.6 0.00 0.00 0.00 86 1016.1
20260904051016 25 34 0.0 1.6 0.00 0.00 0.00 86 1016.2
20260904050508 25 34 0.0 1.6 0.00 0.00 0.00 85 1016.2
20260904050033 25 34 0.0 0.0 0.00 0.00 0.00 85 1016.2
20260904045512 25 34 0.0 0.0 0.00 0.00 0.00 84 1016.2
20260904045013 25 34 0.0 0.0 0.00 0.00 0.00 84 1016.1
20260904044526 25 34 0.0 1.6 0.00 0.00 0.00 84 1016.2
20260904044014 25 34 0.0 1.6 0.00 0.00 0.00 85 1016.2
20260904043511 25 34 0.0 1.6 0.00 0.00 0.00 86 1016.2
20260904043040 25 34 0.0 1.6 0.00 0.00 0.00 86 1016.3
20260904042514 25 34 0.0 1.6 0.00 0.00 0.00 87 1016.3
20260904042015 25 35 0.0 0.0 0.00 0.00 0.00 88 1016.2
20260904041509 25 34 0.0 0.0 0.00 0.00 0.00 87 1016.3
20260904041006 25 35 0.0 0.0 0.00 0.00 0.00 86 1016.2
20260904040504 25 35 0.0 0.0 0.00 0.00 0.00 85 1016.1
20260904040014 25 34 0.0 0.0 0.00 0.00 0.00 85 1016.2
20260904035508 25 34 0.0 1.6 0.00 0.00 0.00 84 1016.2
20260904035010 25 34 0.0 1.6 0.00 0.00 0.00 84 1016.2
20260904034521 25 34 0.0 0.0 0.00 0.00 0.00 84 1016.3
20260904034010 26 34 0.0 1.6 0.00 0.00 0.00 82 1016.4
20260904033505 25 34 0.0 1.6 0.00 0.00 0.00 83 1016.5
20260904033015 26 34 0.0 1.6 0.00 0.00 0.00 82 1016.5
20260904032504 26 34 0.0 1.6 0.00 0.00 0.00 82 1016.5
20260904032003 26 34 0.0 1.6 0.00 0.00 0.00 82 1016.5
20260904031508 26 34 0.0 1.6 0.00 0.00 0.00 82 1016.6
20260904031004 26 34 0.0 0.0 0.00 0.00 0.00 82 1016.6
20260904030508 26 34 0.0 1.6 0.00 0.00 0.00 81 1016.5
20260904030010 26 34 0.0 1.6 0.00 0.00 0.00 80 1016.5
20260904025507 26 34 1.6 1.6 0.00 0.00 0.00 80 1016.4
20260904025006 26 34 1.6 1.6 0.00 0.00 0.00 79 1016.5
20260904024521 26 34 1.6 1.6 0.00 0.00 0.00 80 1016.6
20260904024012 26 35 0.0 1.6 0.00 0.00 0.00 80 1016.4
20260904023510 26 34 0.0 1.6 0.00 0.00 0.00 80 1016.4